Regional Weather Roundup
Issued by NWS

Home | Current Version | Previous Version | Text Only | Print | Product List | Glossary Off
Versions: 1 2 3 4 5 6 7 8 9 10 11 12 13 14 15 16 17 18 19 20 21 22 23 24 25 26 27

000
ASUS45 KBOU 222210
RWRCO

WEATHER ROUNDUP FOR COLORADO
NATIONAL WEATHER SERVICE DENVER/BOULDER CO
400 PM MDT TUE MAY 22 2018

NOTE: "FAIR" INDICATES FEW OR NO CLOUDS BELOW 12000 FEET WITH NO
SIGNIFICANT WEATHER AND/OR OBSTRUCTIONS TO VISIBILITY.

COZ001>005-013-030-031-222300-
...NORTHWEST COLORADO...

CITY           SKY/WX    TMP DP  RH WIND       PRES   REMARKS
CRAIG          FAIR      57  49  74 SW16      30.02R
HAYDEN         LGT RAIN  54  48  80 W9G17     30.04R
MEEKER         PTSUNNY   60  43  53 N10       30.03S
RANGELY        CLOUDY    60  46  59 SW7       30.01R
RABBIT EARS PA MOCLDY    52  34  50 W8        30.19F
STEAMBOAT SPGS CLOUDY    60  39  45 W17G31    30.02R
WALDEN         PTSUNNY   70  32  24 SW24      30.01R
$$

COZ006>008-011-222300-
...WEST CENTRAL VALLEYS...

CITY           SKY/WX    TMP DP  RH WIND       PRES   REMARKS
GRAND JUNCTION FAIR      64  47  53 NE8       29.94F
MONTROSE       CLOUDY    66  34  30 CALM      29.99F
EAGLE          CLOUDY    70  33  25 W10       29.95F
RIFLE          FAIR      66  40  38 W26G37    29.94F
DELTA          CLOUDY    65  40  40 SW3       30.01R
NUCLA          FAIR      70  30  23 S5        30.00F
$$

COZ017>023-064>068-222300-
...SOUTHWEST COLORADO...

CITY           SKY/WX    TMP DP  RH WIND       PRES   REMARKS
DURANGO        FAIR      71  27  19 VRB5      30.00F
CORTEZ         FAIR      73  27  18 SW21G26   29.96F
PAGOSA SPRINGS FAIR      69  15  12 SW21G28   30.06S
TELLURIDE      CLOUDY    52  38  59 CALM      30.17F
WOLF CREEK PAS CLOUDY    45  19  36 S29G44    30.31F
$$

COZ009-010-012-014-032>034-037-058>063-222300-
...CENTRAL COLORADO...

CITY           SKY/WX    TMP DP  RH WIND       PRES   REMARKS
ASPEN          PTSUNNY   63  33  32 S7        30.02S
BUENA VISTA    CLOUDY    62  35  36 W30G43    30.06R
COPPER MTN     TSTM      45  32  61 S14G22    30.30R
BERTHOUD PASS  FAIR      41  32  70 SE23      30.31S
COTTONWOOD PAS CLOUDY    50  41  71 SW25G39   30.20R
GUNNISON       PTSUNNY   62  32  32 W17G23    30.05R
GRANBY         MOCLDY    62  35  36 W10       30.05F
KREMMLING      LGT RAIN  61  43  51 SW15G29   30.07R
LEADVILLE      LGT RAIN  46  36  68 E12G25    30.16R
MONARCH PASS   CLOUDY    39  36  87 MISG      30.41R
SALIDA         CLOUDY    71  31  22 S18G29    30.10S
SUNLIGHT       FAIR      45  32  61 NW14G23   30.24F
WILKERSON PASS FAIR      52  23  32 SW9G20    30.28F
$$

COZ069>075-222300-
...SAN LUIS VALLEY/SANGRE DE CRISTO MOUNTAINS...

CITY           SKY/WX    TMP DP  RH WIND       PRES   REMARKS
ALAMOSA        FAIR      71  29  21 SW16G31   30.04F
DEL NORTE      FAIR      68  29  23 SW16      30.05F
LA VETA PASS   FAIR      61  21  21 S16G41    30.34R
SAGUACHE       NOT AVBL
$$

COZ035-036-038>040-222300-
...NORTHERN COLORADO FRONT RANGE...

CITY           SKY/WX    TMP DP  RH WIND       PRES   REMARKS
DENVER INTL AP PTSUNNY   80  43  26 E8        29.86F
AURORA         PTSUNNY   81  44  26 E13G21    29.87F
FRONT RANGE AP PTSUNNY   82  41  23 E10G18    29.89F
ERIE MUNI ARPT FAIR      78  47  34 N6        29.90F
BOULDER MUN AP FAIR      73  45  35 NW10      29.87F
CENTENNIAL     PTSUNNY   76  41  28 E16       29.87F
BROOMFIELD     PTSUNNY   77  45  31 N8        29.92
FORT COLLINS   FAIR      79  50  36 SE8       29.87F
LONGMONT       FAIR      80  50  34 N3        29.88
$$

COZ041-046-047-076>085-087-088-222300-
...PIKES PEAK/PALMER DIVIDE AND SOUTHERN FOOTHILLS...

CITY           SKY/WX    TMP DP  RH WIND       PRES   REMARKS
COLO. SPRINGS  PTSUNNY   80  35  19 S20G33    29.93F
A. F. ACADEMY  MOSUNNY   77  32  19 S24G32    29.93F
SCHRIEVER AFB  NOT AVBL
CHEYENNE MTN   FAIR      73  32  22 SE20G31   29.92F
ELLICOTT         N/A    N/A N/A N/A S16G31    29.94F
FALCON         FAIR      77  31  18 S22G30    30.00S
FORT CARSON    FAIR      81  37  21 SE23G30   29.90F
LIMON          FAIR      76  39  26 SE23G30   29.91F
MONUMENT HILL  FAIR      73  36  25 S18G26    29.98F
CANON CITY     FAIR      84  30  14 SW10G21   29.87F
WALSENBURG     FAIR      79  39  24 CALM      29.94S
TRINIDAD       FAIR      84  33  16 S28G40    29.90F
$$

COZ042>045-048>051-090-091-222300-
...NORTHEAST COLORADO...

CITY           SKY/WX    TMP DP  RH WIND       PRES   REMARKS
GREELEY ARPT   FAIR      76  51  41 E12G20    29.85F
AKRON          FAIR      77  53  43 SE24G30   29.90F
BURLINGTON     FAIR      78  51  38 S24G37    29.91F
WRAY           FAIR      79  48  34 S21G31    29.89S
YUMA           FAIR      73  14  10 SE10      29.89F
STERLING       FAIR      79  54  41 SE14G22   29.86F
HOLYOKE        FAIR      82  48  30 SE21G29   29.89F
FORT MORGAN    FAIR      81  42  25 SE13      29.87F
$$

COZ086-089-092>099-222300-
...SOUTHEAST COLORADO...

CITY           SKY/WX    TMP DP  RH WIND       PRES   REMARKS
PUEBLO         FAIR      84  36  18 SE20      29.84F
LA JUNTA       FAIR      86  44  23 S13G24    29.83F
LAMAR          FAIR      87  48  25 S23G39    29.83F
SPRINGFIELD      N/A     80  51  36 S28G37    29.93F
$$




USA.gov is the U.S. government's official web portal to all federal, state and local government web resources and services.